Temp
20 21 22 22 22 22 21 21 21 21 21 20 20 20 21 21 21 21 21 21 20 20 20 20 20 20 20 21 21 21 21 21 21 21 21 21 21 21 21 20 19 20 20
19 21 21 22 21 21 21 21 21 20 20 20 20 20 20 20 20 20 20 20 20 20 19 19 20 20 20 21 21 21 21 21 22 21 21 21 21 22 21 20 19 20 20
20 21 20 20 21 21 21 21 20 20 20 20 19 19 19 19 19 19 19 19 19 19 19 18 19 19 19 20 20 21 21 21 21 21 21 21 20 20 21 21 20 20 20
20 20 20 20 20 20 21 21 21 20 20 20 20 20 19 19 19 19 19 19 20 19 19 18 18 18 19 19 19 20 20 21 21 21 21 21 20 20 21 20 20 20 20
20 20 20 20 19 19 18 19 19 19 19 19 19 19 19 19 19 19 19 19 19 19 19 19 18 18 18 18 19 19 20 20 21 22 22 21 21 20 20 20 20 20 19
20 21 21 21 20 20 19 19 18 18 18 18 18 18 18 18 18 18 19 19 19 19 19 19 19 19 19 18 18 18 18 19 20 21 23 22 21 21 21 21 20 20 19
19 20 20 21 21 20 20 19 19 19 18 18 18 18 18 18 18 18 18 17 18 18 18 18 18 18 19 19 19 18 18 18 18 19 21 22 21 21 21 22 22 21 19
19 19 19 19 20 20 20 19 19 19 18 18 18 18 18 17 17 16 17 17 17 17 17 18 17 17 17 18 18 19 18 18 18 18 20 21 21 21 22 21 22 21 20
20 20 19 19 19 19 19 19 19 18 17 17 17 17 17 15 16 16 16 14 15 16 16 16 17 16 16 17 17 17 18 18 18 18 19 20 20 21 21 22 22 22 21
19 19 18 18 18 18 18 18 17 18 17 16 16 15 16 15 15 15 15 15 15 15 15 15 15 16 15 15 15 16 16 17 18 18 18 19 20 20 21 22 22 22 22
18 17 17 17 16 16 17 16 16 16 16 15 14 14 14 14 14 13 12 11 12 13 12 13 13 13 13 14 15 15 14 16 16 17 19 19 20 20 19 21 22 22 22
18 16 15 15 15 15 15 15 15 15 15 15 14 12 12 12 11 11 10 10 10 10 11 10 10 11 12 12 13 14 15 14 14 16 16 19 20 20 20 19 21 21 21
17 15 14 14 14 14 14 14 14 14 14 14 11 10 10 10 9 9 8 8 8 6 7 8 8 8 9 10 11 11 12 13 13 14 15 16 18 19 20 20 20 21 21
16 15 13 13 13 12 13 13 13 13 13 12 10 9 8 7 6 7 6 6 5 4 4 5 5 5 7 7 9 10 10 11 11 11 13 14 16 17 19 19 20 20 21
15 14 12 12 12 11 11 12 12 11 12 10 9 8 7 5 4 4 4 4 4 3 3 3 3 4 3 5 5 7 8 9 10 10 11 12 14 15 16 18 19 20 20
13 12 11 11 10 10 10 11 11 11 11 9 7 5 5 4 3 3 3 3 2 1 1 2 2 2 2 3 4 4 6 7 7 9 10 10 11 13 14 15 18 19 20
11 10 10 9 9 9 9 9 9 9 9 7 6 5 4 3 2 1 1 1 0 0 1 1 1 1 1 2 2 3 4 5 6 6 8 10 11 12 13 14 17 18 19
11 10 9 8 8 7 8 8 8 8 7 6 4 3 3 2 1 0 -0 -0 0 0 0 0 1 0 0 1 1 2 2 2 4 6 6 8 9 11 12 13 14 17 18
10 10 8 7 7 6 6 6 6 7 6 5 4 3 2 1 0 0 -0 -0 -0 -0 -0 -0 -0 0 0 1 1 1 1 2 3 4 5 6 8 10 11 13 13 15 18
10 8 7 6 5 5 4 5 5 5 5 4 4 3 3 1 -0 0 -1 -1 -1 -1 -1 -1 -1 -1 -0 -0 0 1 1 2 3 3 4 6 7 9 10 11 13 14 16
8 8 6 5 4 4 3 3 3 4 4 4 3 2 1 0 -0 -1 -1 -2 -1 -1 -1 -2 -1 -1 -1 -1 -0 0 1 3 4 3 3 4 6 6 8 10 11 13 15
8 7 6 5 4 4 3 3 3 3 4 4 3 2 1 0 -1 -2 -2 -2 -2 -2 -2 -2 -2 -2 -2 -2 -1 -1 1 2 2 1 2 3 4 4 6 7 9 11 13
7 6 5 5 4 4 3 3 2 2 3 3 2 1 0 -0 -1 -2 -2 -3 -3 -3 -2 -3 -2 -3 -2 -2 -2 -1 -0 0 -0 2 2 1 2 2 4 6 7 9 13
6 5 5 5 4 3 2 2 2 2 2 2 2 1 0 -1 -1 -2 -3 -3 -3 -3 -4 -4 -3 -3 -3 -3 -3 -2 -2 -2 -1 0 1 1 0 1 2 4 5 7 9
6 5 5 4 3 2 2 2 2 2 2 2 1 1 0 -1 -2 -2 -2 -3 -3 -4 -4 -4 -4 -3 -3 -3 -3 -3 -3 -2 -1 -1 -1 -0 0 1 2 3 4 5 6
4 4 4 3 2 2 1 1 2 2 1 1 0 -0 -1 -1 -2 -2 -3 -3 -3 -4 -4 -5 -4 -4 -4 -3 -4 -3 -3 -3 -2 -2 -1 -1 -1 0 0 3 3 3 4
Height
831 829 828 826 825 824 822 821 821 820 820 820 821 820 820 820 819 818 817 816 815 814 814 813 813 812 811 810 810 809 809 807 808 807 808 808 809 809 810 811 812 814 815
833 831 830 829 828 826 825 824 823 822 822 821 821 820 820 819 820 820 819 819 818 816 815 814 813 812 811 810 809 808 808 807 806 806 806 807 807 808 809 809 811 813 814
833 833 832 831 830 829 827 827 826 825 824 824 823 822 821 821 820 819 820 819 819 818 817 816 814 813 811 810 809 807 806 806 805 804 805 805 807 808 808 809 810 812 814
837 836 835 834 832 831 829 828 827 826 825 824 824 823 822 821 821 820 819 818 817 817 816 815 814 813 811 810 808 807 806 803 803 803 803 803 805 807 808 808 808 810 813
841 840 839 837 834 833 832 831 830 829 827 826 825 824 823 822 820 819 818 817 816 815 813 813 813 812 811 809 808 807 806 804 801 799 799 801 802 804 806 807 808 808 811
846 844 842 841 839 837 836 834 833 832 830 827 827 825 823 822 821 819 817 815 814 813 812 810 809 808 807 807 806 805 805 804 803 800 797 796 797 798 801 802 804 807 808
849 848 846 845 843 841 840 839 837 835 833 831 829 827 824 823 821 819 817 815 813 811 809 808 806 804 803 802 802 803 802 802 801 800 797 795 795 794 794 795 798 801 805
852 851 850 848 847 846 844 842 840 837 834 833 831 828 826 824 821 819 818 815 813 811 808 805 803 802 801 799 798 796 797 798 798 797 795 794 793 793 792 792 792 796 799
854 852 850 849 849 848 847 844 842 839 836 833 831 828 826 823 821 819 817 815 813 811 807 804 801 798 796 795 794 793 792 792 792 792 792 791 792 791 788 788 788 789 793
858 856 854 852 850 849 848 846 844 841 839 835 832 830 826 823 822 820 817 815 812 810 807 804 801 798 794 791 789 788 787 786 786 785 787 787 787 789 787 783 783 786 787
861 859 858 857 855 854 851 849 847 844 842 838 834 831 829 825 823 821 818 815 812 809 804 803 800 796 793 790 787 784 782 780 780 779 778 779 782 785 786 784 780 779 782
865 863 862 861 859 856 854 851 849 846 843 840 834 831 830 827 824 822 819 816 812 807 804 801 799 795 790 786 783 781 778 776 775 773 772 772 775 778 780 783 781 778 776
868 867 865 863 861 858 856 854 851 847 844 842 837 834 831 828 826 823 820 816 813 808 803 800 797 795 791 786 782 779 777 774 772 768 766 768 769 770 772 773 777 776 775
871 871 868 865 862 860 858 855 853 850 846 843 840 836 833 832 829 826 824 821 816 811 806 802 799 795 790 785 782 777 774 771 769 766 761 761 760 761 764 766 767 769 771
874 874 870 867 866 864 861 859 856 854 851 848 842 837 834 832 832 830 827 823 819 814 810 805 800 794 790 785 780 776 771 768 766 762 760 755 753 754 753 758 760 761 765
877 876 874 872 870 868 865 862 859 856 853 849 846 844 838 835 831 829 827 826 822 817 811 807 802 795 790 786 779 774 769 765 761 758 754 751 749 745 745 746 750 753 756
881 880 878 875 873 870 868 865 862 860 857 853 851 845 842 838 834 832 829 827 823 818 812 806 801 796 791 784 779 772 766 761 756 753 749 744 742 741 738 737 739 742 748
883 882 880 879 876 873 870 867 864 861 860 856 853 848 845 842 838 835 832 829 825 819 814 808 802 795 790 784 776 769 763 757 749 745 743 741 738 736 733 731 723 733 738
885 885 883 881 878 876 872 869 866 862 859 858 853 850 847 845 842 838 835 830 825 820 815 809 804 798 791 784 776 768 761 753 745 741 738 737 735 735 729 723 716 723 727
888 887 886 883 881 878 875 872 868 866 862 858 855 853 850 846 845 841 836 831 826 821 816 810 804 798 791 783 774 765 757 747 741 741 737 733 728 726 722 721 718 717 718
889 888 887 885 883 879 877 872 869 867 864 861 857 855 853 850 846 842 837 832 827 822 818 812 804 797 790 783 772 761 751 745 743 739 737 732 727 723 721 717 714 712 711
890 891 890 888 885 882 879 876 873 869 865 863 858 855 854 852 848 844 839 835 830 824 818 812 806 799 793 786 778 767 752 745 737 738 735 731 727 722 717 714 710 707 706
891 892 891 890 888 885 883 879 875 872 868 864 862 856 855 855 850 845 841 836 832 826 820 814 808 802 794 788 783 777 766 760 751 735 734 731 727 722 716 713 708 701 699
894 893 893 890 888 886 884 881 877 871 868 863 862 861 857 855 851 847 842 837 833 828 822 815 809 804 798 791 785 782 778 772 761 741 736 733 729 723 718 712 708 702 696
895 894 893 892 889 887 885 881 879 876 871 867 862 860 858 855 852 848 843 837 833 828 822 815 810 804 800 795 789 781 775 769 763 756 738 731 727 723 717 715 708 701 697
895 895 895 893 890 888 885 881 880 876 872 870 863 860 859 856 852 848 844 839 834 828 822 816 811 806 800 794 789 783 777 770 763 757 747 739 732 721 716 711 707 702 696
Wind_Speed
19 18 18 18 17 17 18 18 17 14 11 11 11 11 10 11 11 11 10 8 7 6 6 4 3 3 3 5 4 3 2 1 2 2 1 1 4 9 13 18 14 11 10
19 17 18 18 18 18 18 17 16 15 14 11 10 11 10 10 11 12 12 11 9 8 7 7 7 7 7 7 7 7 6 5 4 4 2 2 2 7 13 17 12 13 12
20 19 20 19 19 19 18 17 17 16 15 15 13 12 12 13 13 13 14 14 14 13 12 10 11 11 10 11 11 10 9 8 7 6 6 6 5 6 11 14 12 13 12
27 26 25 22 20 18 17 17 17 16 16 15 14 14 13 12 13 14 14 14 14 15 15 15 15 15 15 15 15 14 13 11 10 9 9 9 11 9 10 13 15 16 14
34 34 33 30 27 24 23 22 20 19 19 19 19 18 16 15 15 15 15 16 16 17 17 17 18 19 18 18 18 17 16 15 13 12 12 12 13 12 15 14 16 16 14
30 32 32 35 35 34 33 31 28 26 24 24 23 23 21 20 20 19 19 18 19 20 20 20 19 19 20 21 21 20 19 18 17 16 14 14 14 12 22 17 16 15 16
23 25 27 31 33 32 31 30 29 28 26 27 25 28 28 26 26 22 23 21 21 21 22 24 24 23 21 21 22 22 22 21 20 21 19 16 13 15 25 23 18 18 18
36 32 31 24 28 32 30 30 30 28 27 27 27 25 26 26 26 30 27 28 25 26 25 24 24 25 25 25 24 23 23 23 23 24 24 22 16 16 25 24 21 19 20
28 29 32 32 32 29 31 28 25 29 27 28 29 27 28 28 27 27 28 31 29 29 31 29 27 24 22 24 27 27 26 25 25 27 27 28 25 21 28 26 23 22 22
30 29 30 30 29 30 26 29 28 24 29 27 28 26 28 29 32 34 31 31 29 27 31 26 29 29 25 25 23 21 27 29 30 31 30 31 30 24 30 30 26 24 23
29 29 28 28 28 27 25 27 24 27 25 26 28 25 27 30 31 38 35 34 31 31 25 24 25 27 30 32 27 29 26 20 30 35 35 34 32 28 29 33 30 28 25
29 26 29 28 28 28 28 30 26 24 27 29 30 26 28 29 30 34 34 30 31 27 29 33 33 32 32 33 31 32 31 28 24 28 34 38 36 34 29 34 33 31 29
27 27 30 31 30 31 31 32 27 27 29 30 27 30 30 29 30 32 32 33 29 32 40 39 35 32 30 27 26 26 28 29 31 29 20 28 35 36 37 37 39 34 32
30 28 30 33 31 30 30 32 29 31 31 30 29 36 35 32 32 34 34 30 31 35 35 33 31 36 32 33 30 30 26 25 25 29 31 25 27 35 39 41 44 41 37
30 31 30 33 32 30 32 32 33 34 33 26 31 33 30 32 33 34 30 28 31 36 33 33 32 31 32 33 33 32 34 33 29 27 30 30 28 29 36 36 45 45 44
30 30 29 33 32 27 31 31 30 32 29 25 30 30 33 34 36 33 25 27 29 31 32 32 30 32 31 28 32 31 32 35 32 29 35 34 34 30 29 29 41 45 45
30 30 31 32 28 29 30 29 29 31 29 28 26 31 35 38 37 29 26 27 29 28 28 31 32 28 30 29 28 30 30 32 35 35 33 37 35 33 32 31 32 38 44
28 29 28 28 28 27 27 28 27 28 26 27 26 32 37 38 34 27 28 27 29 28 30 31 28 33 30 30 32 30 32 34 37 38 33 31 29 30 35 35 27 34 37
27 26 24 27 29 27 28 26 25 26 26 25 28 33 37 35 31 25 27 28 28 26 29 29 29 28 29 30 31 33 32 33 35 35 33 31 29 27 31 30 35 31 37
22 25 26 27 29 29 26 25 24 25 24 25 27 31 34 33 28 25 27 29 30 25 28 29 28 28 27 28 33 29 35 34 30 24 21 25 24 22 20 28 31 34 33
23 23 25 26 27 28 25 29 27 26 25 26 22 24 28 31 30 26 32 29 30 26 28 30 28 29 27 30 30 32 25 21 9 27 37 26 25 26 27 22 19 31 30
23 22 22 24 26 25 25 27 23 23 22 22 20 26 29 30 28 30 34 31 30 27 27 29 28 28 24 27 23 27 8 17 29 44 24 20 34 26 28 28 27 19 28
22 20 21 22 24 24 23 26 24 23 20 21 22 24 25 32 30 32 33 32 30 30 29 29 28 28 23 26 27 10 5 5 16 9 30 32 27 34 38 32 26 20 12
20 21 19 19 22 22 24 25 26 23 18 21 25 24 25 31 33 33 33 33 29 31 31 28 29 28 24 23 26 21 19 22 7 8 15 28 35 30 30 26 27 18 11
19 19 19 18 20 22 22 22 24 27 19 22 24 25 25 28 28 32 35 34 29 28 33 32 30 26 24 21 24 24 23 18 20 8 13 19 31 26 23 28 17 15 11
18 18 19 19 21 22 22 21 24 24 25 25 26 25 26 25 27 32 31 35 32 26 35 33 28 25 26 22 24 22 22 19 17 13 10 11 15 19 34 9 16 17 15
Wind_Direction
55 57 54 50 48 47 46 48 48 46 38 25 16 12 5 3 3 3 3 2 2 7 6 354 325 298 283 289 295 305 318 286 320 343 354 146 133 126 131 130 111 134 124
65 59 53 47 44 43 44 43 42 42 38 33 21 13 6 360 355 352 348 343 335 329 326 318 305 285 279 275 282 288 289 278 262 269 256 247 193 149 148 146 129 150 151
58 58 49 43 41 39 39 37 36 33 31 28 24 17 7 358 352 349 342 338 330 324 317 310 305 297 286 281 279 274 271 271 264 249 235 217 212 189 172 168 156 158 158
60 53 45 39 35 34 35 33 30 28 27 23 18 11 4 357 348 342 337 333 329 324 318 313 309 301 294 289 286 281 273 261 256 250 236 219 211 222 205 187 173 165 162
62 59 55 52 50 46 43 39 36 32 30 27 20 12 3 353 343 336 331 326 322 319 315 312 309 304 302 299 294 289 281 271 256 239 233 225 206 235 212 200 181 173 169
67 63 56 50 52 53 53 51 50 47 45 41 33 25 15 4 354 346 332 321 318 316 313 309 304 301 300 299 298 295 289 281 271 257 237 226 220 249 204 202 192 187 177
61 53 51 52 49 49 49 45 43 40 37 33 32 33 33 31 19 8 356 346 336 326 317 311 305 299 294 292 292 294 293 287 278 270 259 241 226 218 199 193 190 194 188
59 59 53 46 48 47 46 45 41 36 28 24 23 19 24 25 22 21 25 12 4 1 351 332 313 303 302 296 289 284 284 285 282 276 268 255 239 223 208 195 194 197 197
56 54 49 50 52 43 40 38 37 39 27 21 18 13 18 17 14 11 13 11 5 1 354 345 343 329 303 298 295 289 282 278 276 274 271 268 260 246 224 209 201 195 198
50 43 43 42 43 34 34 29 30 28 30 18 18 15 8 13 8 8 3 358 0 3 2 350 351 351 346 327 314 304 291 283 273 268 267 264 261 264 236 213 204 199 197
53 47 38 37 35 34 29 28 24 30 25 21 25 19 16 6 2 359 357 358 358 358 1 355 357 355 346 345 343 331 318 309 283 271 264 262 259 257 241 229 209 200 201
50 48 42 36 32 32 24 24 26 25 25 22 12 24 23 9 6 359 357 0 357 352 343 342 339 340 343 346 338 334 331 324 312 272 266 264 259 253 244 236 223 211 207
52 49 34 30 26 31 22 21 27 21 20 16 36 28 22 22 10 6 6 4 4 351 347 346 354 351 345 341 345 342 326 328 326 303 290 263 261 257 246 237 232 224 219
52 44 34 32 27 26 24 19 23 22 18 26 22 17 25 21 16 6 2 2 360 358 356 354 349 341 334 327 324 323 330 335 326 323 314 286 259 253 255 238 236 232 227
43 42 34 28 25 23 22 17 16 17 17 30 20 19 16 18 15 9 10 3 359 353 353 348 346 344 343 338 333 323 314 311 310 319 310 307 291 266 258 251 237 235 234
46 36 28 20 16 22 21 19 17 18 17 32 27 20 13 9 7 11 10 1 357 353 349 349 346 340 336 336 329 328 323 316 311 303 296 299 301 295 272 269 241 235 236
51 37 32 20 25 26 20 21 23 22 31 30 28 15 12 12 9 14 8 1 356 352 350 348 343 344 337 334 330 326 322 315 307 303 299 297 294 292 286 277 253 234 234
40 33 27 23 21 19 24 17 24 25 27 30 29 24 14 13 14 11 4 0 357 357 353 349 345 341 338 335 328 323 318 312 306 303 300 301 296 288 287 276 277 247 239
37 36 42 26 19 21 24 16 22 25 24 33 17 17 7 9 11 8 3 356 353 354 355 352 345 340 333 331 328 321 318 310 301 300 301 302 298 294 285 295 279 268 246
50 49 34 26 17 19 23 15 22 17 26 21 12 10 3 8 10 6 1 357 356 352 353 350 343 341 333 329 326 320 317 312 312 311 322 323 339 328 321 285 289 271 263
51 38 34 30 22 24 24 18 16 11 15 13 12 13 13 12 13 10 3 358 355 355 354 350 347 345 342 341 334 333 323 322 299 345 334 334 340 334 333 332 321 273 262
50 43 38 32 23 24 21 16 14 11 12 12 12 14 14 13 14 6 4 360 355 350 351 353 350 344 346 348 339 322 333 329 341 330 335 352 340 338 337 340 334 316 268
55 48 35 29 25 24 21 16 12 9 15 20 19 17 15 10 3 4 7 1 353 359 352 352 351 349 348 347 348 345 336 334 322 350 323 342 336 333 328 332 331 353 305
64 45 35 28 27 26 20 19 13 8 7 22 18 10 7 6 11 12 7 6 358 359 358 350 353 353 353 346 344 343 334 317 319 316 332 326 329 326 324 337 332 344 19
54 45 31 28 37 25 17 15 7 10 14 21 20 15 5 6 6 9 9 5 355 358 357 354 349 348 354 348 344 339 335 324 316 316 318 327 324 325 327 328 340 357 29
55 40 28 33 30 19 14 19 16 19 17 18 21 17 9 5 3 5 3 6 359 357 358 354 352 346 354 345 346 345 340 329 331 325 313 317 314 324 321 325 10 12 22